Temperature
20 19 20 20 20 20 20 20 19 19 19 19 19 19 19 19 19 18 18 18 18 18 18 18 18 18 18 18 18 18 18 18 18 18 17 17 17 17 17 17 17 16 17
20 19 20 20 20 20 20 20 19 19 19 19 19 19 19 19 19 18 18 18 18 18 18 18 18 18 18 18 18 18 18 17 17 17 17 17 17 17 17 17 16 17 17
20 19 20 20 20 20 20 20 20 19 19 19 19 19 19 19 18 18 18 18 18 18 18 18 18 18 18 18 18 18 17 17 17 17 17 17 17 17 17 17 17 17 17
20 19 19 20 20 20 20 20 20 19 19 19 19 19 19 18 18 18 18 18 18 18 18 18 18 18 18 18 18 18 17 17 17 17 17 17 16 17 17 17 17 17 17
20 19 19 20 20 20 20 19 19 19 19 19 19 19 18 18 18 18 18 18 18 18 18 18 18 18 17 17 17 17 17 17 17 17 17 17 16 17 17 17 17 17 17
19 19 19 19 19 19 19 19 19 19 19 19 19 19 18 18 18 18 18 18 18 18 18 18 18 17 17 17 17 17 17 17 17 17 16 16 17 17 17 17 17 17 17
19 19 19 19 19 19 19 19 19 19 19 19 19 18 18 18 18 18 18 18 18 18 18 18 17 17 17 17 17 17 17 17 17 17 16 16 17 17 17 17 17 17 17
20 19 18 19 19 19 19 19 19 19 19 18 18 18 18 18 18 18 18 18 18 18 18 18 17 17 17 17 17 17 17 17 17 17 17 17 17 17 17 17 17 17 17
19 19 18 18 18 19 19 19 19 19 18 18 18 18 18 18 18 18 18 18 18 18 18 17 17 17 17 17 17 17 17 17 17 17 17 16 17 17 17 17 17 17 17
19 19 18 18 18 18 18 18 19 18 18 18 18 18 18 18 18 17 17 17 17 17 17 17 17 17 17 17 17 17 17 17 17 17 17 17 17 17 17 17 17 17 17
18 18 18 18 18 18 17 18 18 18 18 18 18 18 18 17 17 17 16 17 17 17 17 17 17 17 17 17 17 17 17 17 17 17 17 17 17 17 17 17 17 17 17
18 18 18 18 18 18 18 17 17 17 18 17 17 17 17 17 17 17 17 17 17 17 17 17 17 17 17 17 17 17 17 17 17 17 17 17 17 17 17 17 17 17 17
18 18 18 18 18 18 18 18 18 17 17 17 17 17 17 17 17 17 17 17 17 17 16 17 17 16 17 17 17 17 17 17 17 17 17 17 17 17 17 17 17 16 16
18 18 18 17 17 18 18 18 18 17 17 17 17 17 17 17 17 17 17 16 16 16 16 16 16 16 16 16 16 17 17 17 17 17 17 17 17 17 17 17 16 16 16
18 18 18 17 18 18 18 17 17 17 17 17 17 17 17 17 17 17 16 16 16 16 16 16 16 16 16 16 16 16 16 16 16 17 16 17 17 17 17 16 16 16 16
18 17 17 17 18 18 18 17 17 17 17 17 17 17 17 17 17 16 16 16 16 16 16 16 16 16 16 16 16 16 16 16 16 16 16 17 17 17 16 16 16 16 16
18 17 17 17 17 18 17 17 17 17 17 17 17 17 17 17 17 16 16 16 16 16 16 16 16 16 16 16 16 16 16 16 16 16 16 16 16 16 16 16 16 16 16
17 17 17 17 17 18 17 17 17 17 17 17 17 17 17 17 17 16 16 16 16 16 16 16 16 16 16 16 16 16 16 16 16 16 16 16 16 16 16 16 16 16 16
18 17 18 17 17 17 17 17 17 17 17 17 17 17 17 17 16 16 16 16 16 16 16 16 16 16 16 16 16 16 16 16 16 16 16 16 16 16 16 16 16 16 16
17 17 18 18 17 17 17 17 17 17 17 17 17 17 17 16 16 16 16 16 16 16 15 15 15 15 16 16 17 16 16 16 16 16 16 16 16 16 16 16 16 16 16
17 17 18 17 18 17 17 17 17 17 17 17 17 17 17 16 16 16 16 16 15 15 15 15 15 15 16 16 16 16 16 16 16 16 16 16 16 16 16 16 16 16 16
17 17 17 17 18 17 17 17 17 17 17 17 16 17 16 16 16 16 15 15 15 15 15 15 15 16 16 16 16 17 17 17 16 16 16 16 16 16 16 16 15 15 15
17 17 17 17 17 17 17 17 17 17 17 17 16 16 16 16 16 15 15 15 15 15 15 15 15 15 16 16 16 17 18 18 18 17 16 16 16 16 16 16 15 15 15
18 17 17 17 17 17 17 17 17 17 17 17 17 16 16 16 15 15 15 15 15 15 15 15 15 15 15 16 16 16 16 17 18 18 17 16 16 16 16 16 16 15 15
18 17 17 17 17 17 17 17 17 17 17 17 16 16 16 16 16 15 15 15 15 15 15 15 15 15 15 16 16 16 16 16 17 17 18 17 17 16 16 16 16 16 15
17 17 17 17 17 17 17 17 17 17 17 17 17 16 16 16 15 15 15 15 15 15 15 15 14 15 15 15 15 16 16 17 17 17 18 17 17 17 16 16 16 16 15
Wind_Speed
16 18 20 17 16 16 16 16 17 17 17 17 16 15 14 13 12 12 11 10 10 9 9 9 9 9 9 10 10 11 11 12 13 14 15 15 16 16 16 15 16 17 17
20 21 21 19 17 17 17 17 17 17 17 16 16 15 14 13 12 11 10 10 9 9 9 9 9 9 10 10 10 11 11 12 13 14 15 15 15 15 13 11 13 16 16
21 22 22 19 19 18 17 17 17 17 17 16 15 14 13 12 11 11 11 10 10 9 10 10 10 10 10 10 10 10 10 11 12 12 12 14 15 13 13 14 17 16 16
22 22 21 21 19 18 18 17 17 17 16 15 15 14 13 12 11 11 11 10 10 10 10 10 10 9 9 10 10 10 10 11 11 10 9 12 14 13 13 14 15 15 15
20 21 21 22 20 19 18 17 17 16 16 15 14 13 12 12 11 11 10 10 10 10 10 10 10 9 9 9 9 10 10 10 8 6 9 10 12 13 13 13 14 14 14
20 20 23 21 20 19 18 17 17 16 15 15 14 13 12 11 11 11 10 10 10 10 10 10 9 9 8 8 8 8 9 8 8 7 8 9 12 12 12 12 12 13 13
20 20 23 21 20 19 18 17 16 16 15 14 13 12 12 11 11 10 10 10 10 9 9 9 8 8 7 7 7 7 7 5 4 7 7 8 11 12 12 12 12 12 12
18 19 22 21 20 19 18 17 16 15 15 14 13 12 11 11 10 10 10 9 9 9 9 8 8 7 6 6 6 7 6 5 6 6 6 9 12 10 11 11 11 11 11
17 16 18 19 18 18 17 17 16 15 14 13 12 11 11 10 10 9 9 8 8 8 7 7 7 6 6 6 6 6 5 4 3 6 6 9 12 9 10 10 10 10 10
15 15 15 16 17 17 16 16 15 14 14 13 12 11 10 10 9 8 9 8 8 7 7 6 6 6 5 5 5 5 6 6 4 6 6 10 11 9 10 10 9 10 10
14 13 14 14 14 15 15 16 15 14 13 13 12 11 9 8 9 8 8 7 6 6 6 6 5 5 4 6 5 5 6 5 4 4 5 12 9 8 9 9 9 9 9
17 14 12 13 13 13 12 14 12 12 13 10 10 10 7 6 5 6 10 6 5 6 6 5 5 6 7 6 8 7 5 4 4 4 7 11 8 8 8 8 9 9 9
17 15 13 13 12 12 9 10 9 9 10 9 9 8 6 6 5 5 6 7 6 6 5 7 6 5 3 1 2 3 2 3 3 4 8 10 8 8 8 8 8 8 8
16 15 14 13 11 10 10 9 9 8 8 8 9 8 7 4 3 3 3 3 4 4 3 3 3 2 2 2 3 3 4 3 3 3 8 9 7 8 8 8 8 8 8
16 14 14 12 11 10 8 7 8 7 8 8 8 7 6 4 3 3 3 2 2 3 4 3 2 2 2 3 3 4 3 3 3 4 6 8 8 8 8 8 8 8 8
16 15 13 12 12 11 9 7 6 8 7 7 7 7 6 4 4 3 4 3 2 2 1 2 2 3 2 2 3 3 3 4 4 4 5 8 8 8 8 8 8 8 8
16 15 14 13 12 11 10 9 7 7 8 6 6 7 6 5 5 4 3 4 2 2 3 2 3 3 3 3 3 3 3 3 4 4 4 4 8 10 9 8 8 9 9
15 15 14 12 13 12 10 8 7 7 7 6 6 6 6 5 5 4 3 3 3 3 3 2 3 3 3 3 3 2 3 3 4 4 5 5 5 6 10 9 8 9 9
14 14 14 13 13 12 10 8 7 6 6 6 6 6 6 6 6 5 3 3 3 3 2 3 3 3 3 3 4 3 3 3 3 4 4 5 5 5 6 10 9 10 10
13 14 14 13 12 12 9 8 6 6 6 6 6 6 7 6 6 5 4 4 4 3 3 2 2 2 2 3 3 3 2 2 2 2 4 5 5 6 6 7 9 9 10
14 13 13 14 13 11 9 9 9 8 7 7 6 7 7 6 6 5 3 4 4 3 3 4 4 5 4 3 4 4 4 3 3 3 2 3 4 4 5 6 6 5 8
14 14 13 14 13 13 10 9 7 7 7 6 6 7 7 7 7 6 4 4 4 3 4 4 3 3 4 4 4 4 4 5 5 3 3 3 3 4 5 6 5 5 5
14 14 13 14 13 13 12 9 8 7 6 6 7 7 7 7 7 5 5 4 3 4 4 4 4 5 4 4 4 3 3 2 5 5 3 3 3 3 4 5 6 5 5
12 12 13 13 13 13 12 11 12 10 9 9 8 7 8 8 7 7 6 5 4 3 3 5 4 4 4 4 4 3 3 2 2 4 5 5 4 4 3 3 4 5 5
12 12 12 13 13 13 13 14 13 11 9 8 8 9 8 8 8 7 7 6 5 3 3 2 3 4 4 5 4 5 4 3 5 4 3 4 5 5 4 4 3 3 4
11 12 12 13 13 14 14 14 14 13 11 11 10 10 9 7 8 9 8 7 6 4 4 4 3 4 3 3 4 4 5 5 5 5 4 5 5 5 4 3 4 4 5
Wind_Direction
160 153 150 152 147 141 136 133 133 134 134 135 136 136 134 134 131 126 119 114 109 104 101 99 98 98 100 103 104 106 108 112 114 115 114 113 114 114 116 122 122 111 113
154 151 151 153 150 144 139 135 134 134 134 134 135 134 134 133 131 127 121 117 112 107 105 102 101 101 102 105 107 109 111 114 116 118 120 117 115 115 118 114 103 112 117
152 149 154 154 151 146 142 138 136 135 135 134 134 134 133 133 129 125 121 117 113 109 106 104 103 104 105 107 110 111 113 115 118 126 136 125 117 117 114 106 108 117 117
153 152 156 152 152 147 144 141 138 136 135 134 134 133 133 131 129 127 122 119 114 109 106 106 105 104 106 108 113 114 116 117 124 155 142 122 123 120 120 117 118 119 118
153 152 149 154 152 149 146 144 141 138 137 135 133 133 132 130 128 123 120 117 114 109 106 105 104 104 105 109 114 117 120 123 144 176 110 115 117 123 124 123 122 123 122
153 154 149 156 153 150 148 146 143 140 139 136 135 133 131 129 125 121 119 117 113 108 105 103 103 105 106 109 115 121 125 142 184 125 117 122 121 129 128 126 125 125 124
156 154 150 155 153 152 150 148 145 143 141 139 137 135 130 126 121 119 116 114 111 108 105 102 101 102 104 109 118 124 133 174 168 120 124 119 118 130 131 129 126 127 127
158 153 148 154 154 153 152 151 148 145 142 140 138 134 131 125 122 118 115 114 112 109 107 104 102 102 102 104 114 129 142 207 148 127 130 119 119 133 132 129 130 131 132
157 152 151 157 157 156 155 153 150 147 144 141 137 133 129 128 125 122 119 118 118 116 114 110 105 101 98 99 108 129 149 237 172 130 134 119 128 139 135 134 135 136 136
156 155 155 161 158 160 158 156 152 149 147 143 140 138 134 133 131 130 138 121 121 121 121 119 114 107 102 100 108 132 159 210 167 145 139 123 135 147 144 143 145 144 142
161 160 163 160 160 162 159 155 156 152 150 150 148 146 159 156 143 151 112 116 124 123 122 121 123 123 138 135 125 145 185 207 151 138 119 119 146 157 154 152 154 152 149
166 168 167 162 163 163 159 157 162 161 158 166 152 156 160 139 141 129 116 125 127 130 136 130 138 172 215 173 155 183 194 186 159 152 123 132 158 167 165 163 161 161 158
167 169 169 166 166 163 160 161 161 157 158 160 153 155 151 154 154 152 151 151 157 169 163 149 184 193 198 166 178 175 158 191 174 156 130 147 168 175 175 173 172 172 169
170 171 171 167 167 168 165 162 161 161 162 158 155 165 160 162 162 145 165 153 170 160 146 169 168 160 171 184 192 171 172 200 177 143 134 156 175 184 183 182 184 184 181
170 170 170 167 166 167 165 171 164 162 161 155 156 161 169 170 168 160 156 167 181 151 165 174 178 160 177 187 191 174 175 175 184 181 142 160 178 187 189 190 191 189 190
172 171 170 172 172 170 169 172 165 163 162 159 161 162 175 172 166 175 171 174 172 169 138 179 167 185 192 174 175 164 180 175 171 191 168 163 176 184 191 194 194 193 196
174 172 172 176 174 173 172 173 170 165 163 162 157 161 174 175 166 183 175 184 166 164 169 190 173 191 191 181 166 164 167 168 160 181 185 178 180 181 186 192 196 199 203
175 172 173 177 173 172 172 174 166 164 161 162 162 163 173 168 174 190 177 172 165 189 184 179 206 191 185 186 169 171 154 158 165 180 185 190 195 182 177 184 197 202 206
174 172 173 176 173 170 169 170 163 157 162 166 169 168 166 172 174 188 175 147 189 194 195 203 177 209 184 181 172 173 177 166 181 185 189 194 190 201 178 172 195 204 208
173 174 174 175 173 168 167 163 160 162 168 170 169 161 167 172 174 184 176 174 206 192 186 184 169 207 199 196 192 159 181 173 200 184 212 193 190 198 194 181 193 194 200
173 178 182 179 174 172 171 173 173 174 175 173 170 164 173 173 171 191 181 171 211 188 190 184 188 179 197 190 194 183 179 190 181 186 200 206 182 191 183 186 207 201 191
180 183 186 182 178 180 179 176 177 169 173 171 169 165 177 176 177 182 186 187 186 174 186 192 210 211 183 200 224 200 189 176 191 177 178 190 193 192 188 186 186 203 226
185 186 188 187 183 183 179 172 165 161 169 170 175 175 178 180 186 187 183 196 182 205 181 198 205 215 200 195 234 243 228 198 163 166 183 181 193 201 197 179 191 186 204
186 186 186 185 184 182 181 181 180 182 184 183 182 174 175 182 187 186 187 190 202 204 170 202 193 213 223 210 196 244 298 344 247 173 185 183 187 202 191 201 180 177 192
187 185 186 183 185 184 188 189 188 191 188 179 181 172 181 181 192 192 189 189 196 199 180 201 178 224 222 233 216 205 213 223 251 259 197 183 190 193 191 207 205 192 184
188 187 185 183 185 187 190 191 193 191 188 181 183 180 187 185 193 194 196 197 201 193 179 192 197 202 235 245 254 232 226 229 230 239 236 221 209 188 195 212 220 207 206
Height
1519 1522 1523 1526 1529 1531 1533 1535 1537 1539 1540 1542 1543 1544 1545 1546 1547 1548 1549 1550 1551 1552 1553 1553 1554 1555 1555 1555 1556 1556 1557 1557 1558 1558 1559 1560 1560 1561 1562 1563 1564 1565 1565
1518 1521 1524 1527 1530 1532 1535 1536 1538 1540 1541 1543 1544 1545 1546 1548 1549 1549 1550 1551 1552 1553 1554 1555 1555 1556 1556 1557 1557 1558 1559 1559 1560 1561 1562 1562 1563 1564 1565 1566 1567 1567 1568
1518 1521 1524 1528 1531 1533 1536 1538 1539 1541 1543 1544 1546 1547 1548 1549 1550 1551 1552 1553 1554 1555 1555 1556 1557 1557 1558 1558 1559 1560 1561 1561 1562 1563 1564 1566 1566 1566 1567 1568 1568 1569 1570
1519 1522 1525 1528 1532 1534 1537 1539 1541 1542 1544 1546 1547 1548 1549 1550 1552 1552 1553 1554 1555 1556 1557 1558 1558 1559 1560 1560 1561 1562 1562 1563 1565 1566 1568 1569 1568 1568 1569 1570 1571 1571 1572
1520 1524 1526 1529 1532 1535 1538 1540 1542 1544 1545 1547 1548 1550 1551 1552 1553 1554 1555 1556 1557 1558 1558 1559 1560 1561 1561 1562 1563 1564 1565 1565 1567 1569 1570 1571 1571 1571 1571 1572 1573 1574 1575
1521 1525 1527 1530 1533 1536 1539 1541 1543 1545 1547 1548 1550 1551 1552 1554 1555 1556 1556 1557 1558 1559 1560 1561 1562 1563 1564 1564 1565 1566 1567 1567 1569 1572 1572 1572 1572 1572 1574 1574 1575 1576 1577
1521 1526 1527 1531 1534 1537 1540 1542 1544 1546 1548 1550 1551 1552 1554 1555 1556 1557 1558 1559 1560 1560 1561 1562 1564 1565 1566 1566 1567 1568 1569 1569 1572 1573 1573 1574 1574 1574 1576 1576 1577 1578 1579
1522 1526 1528 1531 1535 1538 1540 1543 1545 1547 1549 1551 1552 1554 1555 1556 1557 1558 1559 1560 1561 1562 1563 1564 1565 1566 1567 1568 1569 1569 1570 1571 1574 1575 1576 1576 1575 1576 1577 1578 1579 1580 1581
1523 1527 1529 1532 1535 1538 1541 1543 1546 1548 1550 1552 1553 1555 1556 1557 1558 1559 1560 1561 1562 1563 1564 1565 1566 1567 1569 1569 1570 1571 1572 1573 1576 1576 1577 1577 1576 1577 1579 1580 1581 1582 1582
1523 1527 1530 1534 1536 1539 1541 1544 1546 1549 1551 1552 1554 1556 1557 1558 1559 1560 1561 1562 1563 1564 1565 1566 1567 1569 1570 1571 1572 1572 1573 1574 1577 1577 1578 1578 1578 1579 1580 1581 1582 1583 1584
1522 1527 1530 1534 1536 1540 1542 1544 1547 1549 1551 1553 1555 1556 1558 1560 1561 1562 1563 1563 1564 1564 1565 1566 1568 1569 1570 1572 1572 1573 1574 1576 1578 1578 1579 1578 1579 1580 1581 1582 1583 1584 1585
1521 1526 1529 1533 1536 1540 1543 1544 1547 1550 1552 1554 1556 1557 1559 1560 1562 1563 1562 1563 1564 1565 1566 1567 1568 1570 1571 1574 1573 1574 1576 1577 1578 1579 1579 1578 1579 1580 1581 1582 1584 1585 1586
1520 1524 1528 1532 1535 1539 1542 1544 1547 1550 1552 1554 1556 1557 1559 1561 1562 1564 1564 1565 1565 1566 1567 1567 1569 1571 1573 1573 1574 1575 1576 1577 1578 1579 1579 1579 1580 1581 1582 1583 1584 1585 1586
1519 1523 1527 1531 1534 1538 1541 1544 1546 1549 1552 1554 1555 1557 1559 1561 1562 1563 1564 1565 1566 1567 1567 1569 1570 1571 1571 1572 1573 1574 1575 1577 1578 1579 1578 1579 1580 1581 1582 1583 1584 1585 1586
1518 1522 1526 1529 1532 1536 1539 1543 1546 1549 1551 1553 1555 1557 1559 1561 1562 1563 1564 1564 1566 1567 1567 1568 1569 1570 1571 1572 1573 1574 1575 1576 1577 1578 1578 1578 1580 1581 1582 1583 1584 1585 1586
1516 1520 1524 1528 1531 1535 1538 1542 1545 1549 1550 1553 1555 1557 1558 1560 1561 1562 1563 1564 1565 1566 1567 1567 1568 1569 1571 1571 1572 1573 1574 1575 1576 1577 1578 1578 1579 1580 1581 1582 1583 1585 1586
1515 1519 1523 1527 1531 1534 1538 1541 1545 1548 1550 1553 1554 1556 1557 1559 1560 1561 1563 1564 1565 1565 1565 1567 1567 1569 1570 1571 1572 1573 1574 1574 1575 1576 1578 1578 1579 1579 1580 1581 1583 1584 1585
1514 1518 1522 1526 1530 1533 1537 1541 1545 1547 1550 1552 1554 1555 1557 1558 1559 1561 1562 1563 1563 1565 1565 1566 1567 1569 1570 1570 1571 1572 1573 1573 1574 1575 1577 1577 1579 1580 1580 1580 1581 1583 1583
1512 1516 1520 1524 1528 1532 1535 1539 1543 1545 1548 1551 1553 1555 1556 1557 1558 1560 1561 1562 1562 1564 1565 1566 1567 1568 1569 1570 1571 1571 1572 1573 1574 1575 1576 1577 1578 1578 1579 1579 1580 1581 1582
1511 1515 1519 1523 1527 1530 1534 1538 1541 1544 1547 1550 1552 1553 1555 1556 1557 1559 1560 1560 1562 1563 1563 1564 1565 1566 1568 1569 1570 1571 1572 1573 1573 1574 1575 1576 1577 1578 1579 1579 1579 1580 1581
1509 1512 1517 1521 1525 1529 1532 1536 1540 1543 1546 1549 1551 1552 1554 1555 1556 1557 1559 1559 1560 1562 1562 1563 1564 1565 1567 1568 1570 1571 1571 1572 1573 1573 1574 1575 1576 1576 1577 1577 1579 1579 1579
1507 1510 1514 1518 1522 1526 1530 1534 1538 1542 1545 1547 1549 1550 1552 1554 1555 1557 1557 1559 1560 1560 1561 1562 1563 1565 1566 1567 1569 1569 1570 1572 1572 1572 1573 1574 1574 1575 1576 1576 1577 1577 1579
1505 1508 1511 1515 1519 1524 1528 1532 1535 1539 1543 1545 1548 1549 1551 1552 1554 1556 1556 1558 1558 1560 1561 1561 1562 1564 1566 1566 1567 1569 1569 1569 1570 1572 1572 1573 1573 1574 1575 1575 1576 1576 1577
1503 1506 1509 1513 1517 1521 1525 1529 1533 1536 1540 1543 1546 1548 1549 1551 1553 1554 1555 1556 1557 1559 1559 1560 1561 1563 1564 1566 1566 1567 1568 1568 1569 1570 1571 1572 1572 1573 1574 1575 1575 1575 1575
1501 1504 1507 1510 1514 1518 1522 1526 1530 1534 1538 1541 1544 1546 1548 1550 1551 1553 1554 1555 1556 1558 1558 1559 1560 1561 1563 1565 1566 1567 1567 1568 1569 1569 1569 1571 1571 1572 1572 1573 1574 1574 1574
1499 1502 1505 1508 1511 1515 1519 1523 1527 1531 1535 1538 1541 1544 1546 1548 1550 1551 1553 1554 1555 1557 1557 1558 1559 1560 1561 1562 1564 1565 1566 1567 1568 1568 1568 1569 1570 1570 1571 1571 1572 1572 1573